Tracking 19212 objects as of 16-Jul-2018
HD Live streaming from Space Station
objects crossing your sky now

IRIDIUM 138

Track IRIDIUM 138 now!
10-day predictions
IRIDIUM 138 is classified as:


NORAD ID: 43071
Int'l Code: 2017-083B
Perigee: 783.2 km
Apogee: 786.5 km
Inclination: 86.4 °
Period: 100.4 minutes
Semi major axis: 7155 km
RCS: Unknown
Launch date: December 23, 2017
Source: United States (US)
Launch site: AIR FORCE WESTERN TEST RANGE (AFWTR)
aabbcc
Your satellite tracking list
Your tracking list is empty




NASA's NSSDC Master Catalog

Two Line Element Set (TLE):
1 43071U 17083B   18196.94623713 +.00000089 +00000-0 +24562-4 0  9994
2 43071 086.3958 091.1123 0002314 089.0727 271.0734 14.34217355029444
Source of the keplerian elements: AFSPC